カタログに戻る

SL-8 DEB

運用中PO
NORAD 21257·DEBRIS·🇷🇺 Russia

打ち上げ Feb 5, 1991 から Plesetsk Cosmodrome

Loading…

次のパス (今後24時間)

TLE

最新Source: Space-Track

元期: Sep 14, 2026, 03:38 UTC

1 21257U 91007D   26257.15185894  .00000166  00000-0  14919-3 0  9997
2 21257  82.9155 245.3956 0031847 328.6296 162.4337 13.78205770786403

AllMySatでSL-8 DEBをリアルタイム追跡

Download on the App Store